Time,TemperatureF,DewpointF,PressureIn,WindDirection,WindDirectionDegrees,WindSpeedMPH,WindSpeedGustMPH,Humidity,HourlyPrecipIn,Conditions,Clouds,dailyrainin,SoftwareType,DateUTC
2013-06-15 00:01:00,69.3,62.5,29.99,ENE,68,0.0,3.0,79,0.00,,-RA,0.00,VWS V14.01,2013-06-15 04:01:00,
2013-06-15 00:02:00,69.3,62.5,29.99,ENE,68,0.0,0.0,79,0.00,,-RA,0.00,VWS V14.01,2013-06-15 04:02:00,
2013-06-15 00:06:00,69.4,62.6,29.99,ENE,68,0.0,0.0,79,0.00,,-RA,0.00,VWS V14.01,2013-06-15 04:06:00,
2013-06-15 00:11:00,69.1,62.7,29.99,ENE,68,0.0,1.0,80,0.00,,-RA,0.00,VWS V14.01,2013-06-15 04:11:00,
2013-06-15 00:17:00,69.1,62.3,30.00,ENE,68,0.0,1.0,79,0.00,,-RA,0.00,VWS V14.01,2013-06-15 04:17:00,
2013-06-15 00:22:00,69.2,62.1,30.00,ENE,68,0.0,1.0,78,0.00,,-RA,0.00,VWS V14.01,2013-06-15 04:22:00,
2013-06-15 00:27:00,69.3,61.8,30.00,ENE,68,0.0,1.0,77,0.00,,-RA,0.00,VWS V14.01,2013-06-15 04:27:00,
2013-06-15 00:32:00,69.8,61.2,29.99,ENE,68,0.0,1.0,74,0.00,,-RA,0.00,VWS V14.01,2013-06-15 04:32:00,
2013-06-15 00:37:00,70.4,61.3,30.00,ENE,68,0.0,1.0,73,0.00,,-RA,0.00,VWS V14.01,2013-06-15 04:37:00,
2013-06-15 00:42:00,70.3,63.1,30.00,ENE,68,0.0,1.0,78,0.00,,-RA,0.00,VWS V14.01,2013-06-15 04:42:00,
2013-06-15 00:47:00,69.4,62.2,30.00,ENE,68,0.0,1.0,78,0.00,,-RA,0.00,VWS V14.01,2013-06-15 04:47:00,
2013-06-15 00:51:00,69.0,61.5,30.00,ENE,68,0.0,1.0,77,0.00,,-RA,0.00,VWS V14.01,2013-06-15 04:51:00,
2013-06-15 00:56:00,69.0,61.1,30.00,ENE,68,0.0,1.0,76,0.00,,-RA,0.00,VWS V14.01,2013-06-15 04:56:00,
2013-06-15 01:01:00,69.3,61.0,30.00,ENE,68,0.0,0.0,75,0.00,,-RA,0.00,VWS V14.01,2013-06-15 05:01:00,
2013-06-15 01:06:00,69.5,61.2,30.00,ENE,68,0.0,2.0,75,0.00,,-RA,0.00,VWS V14.01,2013-06-15 05:06:00,
2013-06-15 01:11:00,69.7,61.0,30.00,ENE,68,0.0,2.0,74,0.00,,-RA,0.00,VWS V14.01,2013-06-15 05:11:00,
2013-06-15 01:16:00,69.7,61.4,30.00,ENE,68,0.0,2.0,75,0.00,,-RA,0.00,VWS V14.01,2013-06-15 05:16:00,
2013-06-15 01:21:00,69.4,60.8,30.00,ENE,68,0.0,2.0,74,0.00,,-RA,0.00,VWS V14.01,2013-06-15 05:21:00,
2013-06-15 01:26:00,69.7,60.3,30.00,ENE,68,0.0,2.0,72,0.00,,-RA,0.00,VWS V14.01,2013-06-15 05:26:00,
2013-06-15 01:31:00,70.0,60.2,30.00,ENE,68,1.0,2.0,71,0.00,,-RA,0.00,VWS V14.01,2013-06-15 05:31:00,
2013-06-15 01:36:00,70.2,60.8,30.00,ENE,68,0.0,2.0,72,0.00,,-RA,0.00,VWS V14.01,2013-06-15 05:36:00,
2013-06-15 01:41:00,70.0,60.6,30.01,ENE,69,0.0,2.0,72,0.00,,-RA,0.00,VWS V14.01,2013-06-15 05:41:00,
2013-06-15 01:46:00,70.0,60.6,30.01,ENE,69,0.0,2.0,72,0.00,,-RA,0.00,VWS V14.01,2013-06-15 05:46:00,
2013-06-15 01:51:00,70.0,60.6,30.01,ENE,73,0.0,2.0,72,0.00,,-RA,0.00,VWS V14.01,2013-06-15 05:51:00,
2013-06-15 01:56:00,70.0,60.2,30.01,East,82,0.0,2.0,71,0.00,,-RA,0.00,VWS V14.01,2013-06-15 05:56:00,
2013-06-15 02:01:00,70.1,59.9,30.00,East,82,0.0,1.0,70,0.00,,-RA,0.00,VWS V14.01,2013-06-15 06:01:00,
2013-06-15 02:06:00,70.0,60.6,30.01,East,82,1.0,2.0,72,0.00,,-RA,0.00,VWS V14.01,2013-06-15 06:06:00,
2013-06-15 02:11:00,69.4,61.1,30.01,East,82,0.0,4.0,75,0.00,,-RA,0.00,VWS V14.01,2013-06-15 06:11:00,
2013-06-15 02:16:00,68.8,60.6,30.01,East,82,0.0,4.0,75,0.00,,-RA,0.00,VWS V14.01,2013-06-15 06:16:00,
2013-06-15 02:21:00,69.0,60.0,30.01,ESE,105,0.0,4.0,73,0.00,,-RA,0.00,VWS V14.01,2013-06-15 06:21:00,
2013-06-15 02:26:00,69.3,60.3,30.01,ESE,105,0.0,4.0,73,0.00,,-RA,0.00,VWS V14.01,2013-06-15 06:26:00,
2013-06-15 02:31:00,69.0,60.4,30.01,ENE,76,0.0,4.0,74,0.00,,-RA,0.00,VWS V14.01,2013-06-15 06:31:00,
2013-06-15 02:36:00,68.6,60.4,30.01,ENE,66,0.0,4.0,75,0.00,,-RA,0.00,VWS V14.01,2013-06-15 06:36:00,
2013-06-15 02:41:00,68.1,60.6,30.01,ENE,66,0.0,4.0,77,0.00,,-RA,0.00,VWS V14.01,2013-06-15 06:41:00,
2013-06-15 02:46:00,67.8,60.0,30.01,ENE,69,0.0,4.0,76,0.00,,-RA,0.00,VWS V14.01,2013-06-15 06:46:00,
2013-06-15 02:51:00,67.9,60.1,30.01,ENE,78,0.0,4.0,76,0.00,,-RA,0.00,VWS V14.01,2013-06-15 06:51:00,
2013-06-15 02:56:00,67.9,60.1,30.01,ENE,78,1.0,4.0,76,0.00,,-RA,0.00,VWS V14.01,2013-06-15 06:56:00,
2013-06-15 03:01:00,67.9,59.7,30.01,ENE,64,0.0,0.0,75,0.00,,-RA,0.00,VWS V14.01,2013-06-15 07:01:00,
2013-06-15 03:06:00,68.1,59.9,30.01,ENE,64,0.0,2.0,75,0.00,,-RA,0.00,VWS V14.01,2013-06-15 07:06:00,
2013-06-15 03:11:00,68.0,60.2,30.01,ENE,64,0.0,2.0,76,0.00,,-RA,0.00,VWS V14.01,2013-06-15 07:11:00,
2013-06-15 03:16:00,67.7,59.9,30.01,ENE,64,0.0,2.0,76,0.00,,-RA,0.00,VWS V14.01,2013-06-15 07:16:00,
2013-06-15 03:21:00,67.6,59.4,30.01,ENE,73,0.0,2.0,75,0.00,,-RA,0.00,VWS V14.01,2013-06-15 07:21:00,
2013-06-15 03:26:00,67.7,59.9,30.01,ENE,73,0.0,2.0,76,0.00,,-RA,0.00,VWS V14.01,2013-06-15 07:26:00,
2013-06-15 03:31:00,67.5,59.7,30.01,ENE,73,0.0,2.0,76,0.00,,-RA,0.00,VWS V14.01,2013-06-15 07:31:00,
2013-06-15 03:36:00,67.6,59.8,30.00,ENE,73,0.0,2.0,76,0.00,,-RA,0.00,VWS V14.01,2013-06-15 07:36:00,
2013-06-15 03:41:00,67.7,59.1,30.00,ENE,73,0.0,2.0,74,0.00,,-RA,0.00,VWS V14.01,2013-06-15 07:41:00,
2013-06-15 03:46:00,67.9,59.3,30.00,ENE,73,0.0,2.0,74,0.00,,-RA,0.00,VWS V14.01,2013-06-15 07:46:00,
2013-06-15 03:51:00,67.8,59.2,30.00,ENE,73,0.0,2.0,74,0.00,,-RA,0.00,VWS V14.01,2013-06-15 07:51:00,
2013-06-15 03:56:00,67.9,59.3,30.00,ENE,66,0.0,3.0,74,0.00,,-RA,0.00,VWS V14.01,2013-06-15 07:56:00,
2013-06-15 04:01:00,68.3,58.9,30.00,ESE,109,1.0,1.0,72,0.00,,-RA,0.00,VWS V14.01,2013-06-15 08:01:00,
2013-06-15 04:06:00,68.3,59.3,30.00,East,92,0.0,3.0,73,0.00,,-RA,0.00,VWS V14.01,2013-06-15 08:06:00,
2013-06-15 04:11:00,68.3,58.9,30.00,ESE,122,0.0,4.0,72,0.00,,-RA,0.00,VWS V14.01,2013-06-15 08:11:00,
2013-06-15 04:16:00,68.4,59.0,30.00,ENE,70,0.0,4.0,72,0.00,,-RA,0.00,VWS V14.01,2013-06-15 08:16:00,
2013-06-15 04:21:00,68.4,59.0,30.00,East,101,0.0,4.0,72,0.00,,-RA,0.00,VWS V14.01,2013-06-15 08:21:00,
2013-06-15 04:26:00,68.5,59.1,30.00,East,81,0.0,4.0,72,0.00,,-RA,0.00,VWS V14.01,2013-06-15 08:26:00,
2013-06-15 04:31:00,68.5,59.1,30.00,East,82,0.0,4.0,72,0.00,,-RA,0.00,VWS V14.01,2013-06-15 08:31:00,
2013-06-15 04:36:00,68.4,59.0,30.00,ESE,103,0.0,5.0,72,0.00,,-RA,0.00,VWS V14.01,2013-06-15 08:36:00,
2013-06-15 04:41:00,68.3,59.3,30.00,ESE,103,0.0,5.0,73,0.00,,-RA,0.00,VWS V14.01,2013-06-15 08:41:00,
2013-06-15 04:46:00,68.1,59.1,30.00,ENE,61,1.0,5.0,73,0.00,,-RA,0.00,VWS V14.01,2013-06-15 08:46:00,
2013-06-15 04:51:00,68.2,59.2,30.00,ENE,73,0.0,5.0,73,0.00,,-RA,0.00,VWS V14.01,2013-06-15 08:51:00,
2013-06-15 04:56:00,68.2,59.2,30.00,NNE,22,2.0,5.0,73,0.00,,-RA,0.00,VWS V14.01,2013-06-15 08:56:00,
2013-06-15 05:01:00,68.3,59.3,30.00,ENE,78,2.0,3.0,73,0.00,,-RA,0.00,VWS V14.01,2013-06-15 09:01:00,
2013-06-15 05:06:00,68.4,59.0,30.00,ESE,113,0.0,4.0,72,0.00,,-RA,0.00,VWS V14.01,2013-06-15 09:06:00,
2013-06-15 05:11:00,68.6,59.2,30.00,ENE,78,0.0,4.0,72,0.00,,-RA,0.00,VWS V14.01,2013-06-15 09:11:00,
2013-06-15 05:16:00,68.7,59.3,30.00,NE,54,0.0,4.0,72,0.00,,-RA,0.00,VWS V14.01,2013-06-15 09:16:00,
2013-06-15 05:21:00,68.8,59.4,30.00,East,89,3.0,4.0,72,0.00,,-RA,0.00,VWS V14.01,2013-06-15 09:21:00,
2013-06-15 05:26:00,68.8,59.0,30.00,ESE,105,2.0,4.0,71,0.00,,-RA,0.00,VWS V14.01,2013-06-15 09:26:00,
2013-06-15 05:31:00,68.9,59.1,30.01,ESE,119,0.0,4.0,71,0.00,,-RA,0.00,VWS V14.01,2013-06-15 09:31:00,
2013-06-15 05:36:00,68.8,59.0,30.02,SE,126,1.0,4.0,71,0.00,,-RA,0.00,VWS V14.01,2013-06-15 09:36:00,
2013-06-15 05:41:00,68.9,59.1,30.02,ESE,107,1.0,6.0,71,0.00,,-RA,0.00,VWS V14.01,2013-06-15 09:41:00,
2013-06-15 05:46:00,68.8,59.0,30.02,ESE,105,1.0,6.0,71,0.00,,-RA,0.00,VWS V14.01,2013-06-15 09:46:00,
2013-06-15 05:51:00,68.7,58.9,30.03,ESE,111,0.0,6.0,71,0.00,,-RA,0.00,VWS V14.01,2013-06-15 09:51:00,
2013-06-15 05:56:00,68.6,59.2,30.03,SE,126,1.0,6.0,72,0.00,,-RA,0.00,VWS V14.01,2013-06-15 09:56:00,
2013-06-15 06:01:00,68.6,59.2,30.03,ESE,115,0.0,1.0,72,0.00,,-RA,0.00,VWS V14.01,2013-06-15 10:01:00,
2013-06-15 06:06:00,68.5,59.1,30.03,ESE,123,0.0,2.0,72,0.00,,-RA,0.00,VWS V14.01,2013-06-15 10:06:00,
2013-06-15 06:11:00,68.3,58.9,30.03,SE,134,0.0,3.0,72,0.00,,-RA,0.00,VWS V14.01,2013-06-15 10:11:00,
2013-06-15 06:16:00,68.2,59.2,30.03,East,85,0.0,5.0,73,0.00,,-RA,0.00,VWS V14.01,2013-06-15 10:16:00,
2013-06-15 06:21:00,68.1,59.1,30.03,ESE,117,0.0,5.0,73,0.00,,-RA,0.00,VWS V14.01,2013-06-15 10:21:00,
2013-06-15 06:26:00,67.9,59.3,30.04,ESE,117,0.0,5.0,74,0.00,,-RA,0.00,VWS V14.01,2013-06-15 10:26:00,
2013-06-15 06:31:00,67.9,59.3,30.04,East,93,0.0,5.0,74,0.00,,-RA,0.00,VWS V14.01,2013-06-15 10:31:00,
2013-06-15 06:36:00,67.9,59.3,30.05,East,96,0.0,5.0,74,0.00,,-RA,0.00,VWS V14.01,2013-06-15 10:36:00,
2013-06-15 06:41:00,68.1,59.5,30.05,East,96,0.0,5.0,74,0.00,,-RA,0.00,VWS V14.01,2013-06-15 10:41:00,
2013-06-15 06:46:00,68.3,59.7,30.05,East,96,0.0,5.0,74,0.00,,-RA,0.00,VWS V14.01,2013-06-15 10:46:00,
2013-06-15 06:51:00,68.5,60.3,30.06,East,96,0.0,5.0,75,0.00,,-RA,0.00,VWS V14.01,2013-06-15 10:51:00,
2013-06-15 06:56:00,68.6,60.4,30.06,East,96,0.0,5.0,75,0.00,,-RA,0.00,VWS V14.01,2013-06-15 10:56:00,
2013-06-15 07:01:00,68.7,60.8,30.06,East,96,0.0,0.0,76,0.00,,-RA,0.00,VWS V14.01,2013-06-15 11:01:00,
2013-06-15 07:06:00,68.8,60.9,30.06,East,96,0.0,1.0,76,0.00,,-RA,0.00,VWS V14.01,2013-06-15 11:06:00,
2013-06-15 07:11:00,69.0,61.1,30.06,East,96,0.0,1.0,76,0.00,,-RA,0.00,VWS V14.01,2013-06-15 11:11:00,
2013-06-15 07:16:00,69.3,61.0,30.06,East,96,0.0,3.0,75,0.00,,-RA,0.00,VWS V14.01,2013-06-15 11:16:00,
2013-06-15 07:21:00,69.3,61.8,30.06,East,96,0.0,3.0,77,0.00,,-RA,0.00,VWS V14.01,2013-06-15 11:21:00,
2013-06-15 07:26:00,68.9,61.4,30.06,East,96,0.0,3.0,77,0.00,,-RA,0.00,VWS V14.01,2013-06-15 11:26:00,
2013-06-15 07:31:00,68.5,61.4,30.06,East,96,0.0,3.0,78,0.00,,-RA,0.00,VWS V14.01,2013-06-15 11:31:00,
2013-06-15 07:36:00,68.3,61.2,30.06,East,96,0.0,3.0,78,0.00,,-RA,0.00,VWS V14.01,2013-06-15 11:36:00,
2013-06-15 07:41:00,68.6,61.5,30.07,East,82,0.0,3.0,78,0.00,,-RA,0.00,VWS V14.01,2013-06-15 11:41:00,
2013-06-15 07:46:00,69.2,62.4,30.07,East,82,0.0,3.0,79,0.00,,-RA,0.00,VWS V14.01,2013-06-15 11:46:00,
2013-06-15 07:51:00,69.9,63.1,30.07,East,82,0.0,3.0,79,0.00,,-RA,0.00,VWS V14.01,2013-06-15 11:51:00,
2013-06-15 07:56:00,70.5,63.7,30.07,East,82,0.0,3.0,79,0.00,,-RA,0.00,VWS V14.01,2013-06-15 11:56:00,
2013-06-15 08:01:00,70.6,63.4,30.08,East,82,0.0,0.0,78,0.00,,-RA,0.00,VWS V14.01,2013-06-15 12:01:00,
2013-06-15 08:06:00,70.7,63.5,30.08,East,82,0.0,1.0,78,0.00,,-RA,0.00,VWS V14.01,2013-06-15 12:06:00,
2013-06-15 08:11:00,71.1,63.5,30.08,East,82,0.0,1.0,77,0.00,,-RA,0.00,VWS V14.01,2013-06-15 12:11:00,
2013-06-15 08:16:00,72.1,63.8,30.08,ESE,119,0.0,1.0,75,0.00,,-RA,0.00,VWS V14.01,2013-06-15 12:16:00,
2013-06-15 08:21:00,72.9,63.3,30.08,ENE,78,0.0,3.0,72,0.00,,-RA,0.00,VWS V14.01,2013-06-15 12:21:00,
2013-06-15 08:26:00,73.6,64.4,30.08,ENE,78,0.0,3.0,73,0.00,,-RA,0.00,VWS V14.01,2013-06-15 12:26:00,
2013-06-15 08:31:00,73.9,65.1,30.08,ENE,78,0.0,3.0,74,0.00,,-RA,0.00,VWS V14.01,2013-06-15 12:31:00,
2013-06-15 08:36:00,74.1,65.7,30.08,ENE,78,0.0,3.0,75,0.00,,-RA,0.00,VWS V14.01,2013-06-15 12:36:00,
2013-06-15 08:41:00,74.6,65.4,30.08,ENE,78,0.0,3.0,73,0.00,,-RA,0.00,VWS V14.01,2013-06-15 12:41:00,
2013-06-15 08:46:00,75.1,65.9,30.08,ENE,78,0.0,3.0,73,0.00,,-RA,0.00,VWS V14.01,2013-06-15 12:46:00,
2013-06-15 08:51:00,75.6,65.1,30.09,ENE,78,0.0,3.0,70,0.00,,-RA,0.00,VWS V14.01,2013-06-15 12:51:00,
2013-06-15 08:56:00,76.2,65.3,30.09,ENE,78,0.0,3.0,69,0.00,,-RA,0.00,VWS V14.01,2013-06-15 12:56:00,
2013-06-15 09:01:00,76.8,64.2,30.09,NE,56,0.0,4.0,65,0.00,,-RA,0.00,VWS V14.01,2013-06-15 13:01:00,
2013-06-15 09:06:00,77.1,64.9,30.09,NE,56,0.0,2.0,66,0.00,,-RA,0.00,VWS V14.01,2013-06-15 13:06:00,
2013-06-15 09:11:00,77.7,65.0,30.09,NE,55,0.0,2.0,65,0.00,,-RA,0.00,VWS V14.01,2013-06-15 13:11:00,
2013-06-15 09:16:00,78.4,65.2,30.09,NE,55,0.0,2.0,64,0.00,,-RA,0.00,VWS V14.01,2013-06-15 13:16:00,
2013-06-15 09:21:00,78.2,64.1,30.09,SSE,157,1.0,3.0,62,0.00,,-RA,0.00,VWS V14.01,2013-06-15 13:21:00,
2013-06-15 09:26:00,78.0,63.9,30.09,SSE,158,1.0,4.0,62,0.00,,-RA,0.00,VWS V14.01,2013-06-15 13:26:00,
2013-06-15 09:30:00,78.2,64.6,30.09,SE,134,0.0,4.0,63,0.00,,-RA,0.00,VWS V14.01,2013-06-15 13:30:00,
2013-06-15 09:35:00,78.2,64.1,30.09,East,96,3.0,5.0,62,0.00,,-RA,0.00,VWS V14.01,2013-06-15 13:35:00,
2013-06-15 09:40:00,78.5,64.4,30.09,East,97,0.0,5.0,62,0.00,,-RA,0.00,VWS V14.01,2013-06-15 13:40:00,
2013-06-15 09:45:00,79.0,64.9,30.09,ENE,72,0.0,5.0,62,0.00,,-RA,0.00,VWS V14.01,2013-06-15 13:45:00,
2013-06-15 09:50:00,79.5,65.3,30.09,ENE,73,2.0,5.0,62,0.00,,-RA,0.00,VWS V14.01,2013-06-15 13:50:00,
2013-06-15 09:55:00,80.1,64.0,30.09,ENE,73,1.0,5.0,58,0.00,,-RA,0.00,VWS V14.01,2013-06-15 13:55:00,
2013-06-15 10:00:00,80.4,63.8,30.09,SE,146,1.0,5.0,57,0.00,,-RA,0.00,VWS V14.01,2013-06-15 14:00:00,
2013-06-15 10:05:00,80.1,63.5,30.10,ESE,105,0.0,4.0,57,0.00,,-RA,0.00,VWS V14.01,2013-06-15 14:05:00,
2013-06-15 10:10:00,80.3,62.7,30.10,East,95,3.0,6.0,55,0.00,,-RA,0.00,VWS V14.01,2013-06-15 14:10:00,
2013-06-15 10:15:00,80.4,62.8,30.10,ESE,107,1.0,6.0,55,0.00,,-RA,0.00,VWS V14.01,2013-06-15 14:15:00,
2013-06-15 10:20:00,81.0,62.3,30.10,ENE,76,0.0,6.0,53,0.00,,-RA,0.00,VWS V14.01,2013-06-15 14:20:00,
2013-06-15 10:25:00,81.7,62.9,30.10,ESE,111,1.0,6.0,53,0.00,,-RA,0.00,VWS V14.01,2013-06-15 14:25:00,
2013-06-15 10:30:00,81.4,63.2,30.10,ENE,67,0.0,7.0,54,0.00,,-RA,0.00,VWS V14.01,2013-06-15 14:30:00,
2013-06-15 10:35:00,81.5,62.2,30.10,SE,126,0.0,7.0,52,0.00,,-RA,0.00,VWS V14.01,2013-06-15 14:35:00,
2013-06-15 10:40:00,81.7,62.4,30.10,ESE,123,0.0,7.0,52,0.00,,-RA,0.00,VWS V14.01,2013-06-15 14:40:00,
2013-06-15 10:45:00,82.2,61.7,30.10,East,82,1.0,7.0,50,0.00,,-RA,0.00,VWS V14.01,2013-06-15 14:45:00,
2013-06-15 10:50:00,82.3,62.4,30.10,South,186,1.0,7.0,51,0.00,,-RA,0.00,VWS V14.01,2013-06-15 14:50:00,
2013-06-15 10:55:00,82.3,62.9,30.11,East,93,0.0,7.0,52,0.00,,-RA,0.00,VWS V14.01,2013-06-15 14:55:00,
2013-06-15 11:00:00,82.7,60.4,30.10,SE,145,3.0,7.0,47,0.00,,-RA,0.00,VWS V14.01,2013-06-15 15:00:00,
2013-06-15 11:05:00,82.7,61.6,30.10,ENE,65,2.0,6.0,49,0.00,,-RA,0.00,VWS V14.01,2013-06-15 15:05:00,
2013-06-15 11:10:00,83.2,60.3,30.11,NE,55,3.0,6.0,46,0.00,,-RA,0.00,VWS V14.01,2013-06-15 15:10:00,
2013-06-15 11:15:00,83.6,61.8,30.10,NNE,32,0.0,6.0,48,0.00,,-RA,0.00,VWS V14.01,2013-06-15 15:15:00,
2013-06-15 11:20:00,83.8,61.4,30.11,ENE,69,1.0,6.0,47,0.00,,-RA,0.00,VWS V14.01,2013-06-15 15:20:00,
2013-06-15 11:25:00,83.6,62.4,30.10,ENE,68,3.0,6.0,49,0.00,,-RA,0.00,VWS V14.01,2013-06-15 15:25:00,
2013-06-15 11:30:00,84.2,61.2,30.10,ESE,119,0.0,6.0,46,0.00,,-RA,0.00,VWS V14.01,2013-06-15 15:30:00,
2013-06-15 11:35:00,84.2,61.8,30.11,NE,51,0.0,6.0,47,0.00,,-RA,0.00,VWS V14.01,2013-06-15 15:35:00,
2013-06-15 11:40:00,83.9,61.5,30.11,ENE,61,0.0,6.0,47,0.00,,-RA,0.00,VWS V14.01,2013-06-15 15:40:00,
2013-06-15 11:45:00,84.3,63.1,30.10,ENE,61,1.0,6.0,49,0.00,,-RA,0.00,VWS V14.01,2013-06-15 15:45:00,
2013-06-15 11:50:00,83.6,59.4,30.10,ENE,74,2.0,6.0,44,0.00,,-RA,0.00,VWS V14.01,2013-06-15 15:50:00,
2013-06-15 11:55:00,82.8,61.7,30.10,SSE,165,1.0,6.0,49,0.00,,-RA,0.00,VWS V14.01,2013-06-15 15:55:00,
2013-06-15 12:00:00,83.1,62.0,30.10,South,178,2.0,6.0,49,0.00,,-RA,0.00,VWS V14.01,2013-06-15 16:00:00,
2013-06-15 12:05:00,83.3,62.2,30.10,South,171,0.0,5.0,49,0.00,,-RA,0.00,VWS V14.01,2013-06-15 16:05:00,
2013-06-15 12:10:00,83.8,59.6,30.09,ENE,68,0.0,7.0,44,0.00,,-RA,0.00,VWS V14.01,2013-06-15 16:10:00,
2013-06-15 12:15:00,83.8,61.4,30.09,SE,139,1.0,7.0,47,0.00,,-RA,0.00,VWS V14.01,2013-06-15 16:15:00,
2013-06-15 12:20:00,84.3,62.5,30.09,ENE,63,6.0,7.0,48,0.00,,-RA,0.00,VWS V14.01,2013-06-15 16:20:00,
2013-06-15 12:25:00,84.9,61.2,30.09,ENE,67,4.0,7.0,45,0.00,,-RA,0.00,VWS V14.01,2013-06-15 16:25:00,
2013-06-15 12:30:00,85.0,60.0,30.09,NW,323,5.0,7.0,43,0.00,,-RA,0.00,VWS V14.01,2013-06-15 16:30:00,
2013-06-15 12:35:00,85.0,60.0,30.09,NW,305,0.0,7.0,43,0.00,,-RA,0.00,VWS V14.01,2013-06-15 16:35:00,
2013-06-15 12:40:00,85.4,60.4,30.09,ENE,78,2.0,8.0,43,0.00,,-RA,0.00,VWS V14.01,2013-06-15 16:40:00,
2013-06-15 12:45:00,85.1,61.4,30.09,SE,126,1.0,8.0,45,0.00,,-RA,0.00,VWS V14.01,2013-06-15 16:45:00,
2013-06-15 12:50:00,84.8,60.5,30.09,SSE,153,0.0,8.0,44,0.00,,-RA,0.00,VWS V14.01,2013-06-15 16:50:00,
2013-06-15 12:55:00,85.2,61.5,30.09,South,188,5.0,8.0,45,0.00,,-RA,0.00,VWS V14.01,2013-06-15 16:55:00,
2013-06-15 13:00:00,84.8,60.5,30.09,ENE,77,0.0,8.0,44,0.00,,-RA,0.00,VWS V14.01,2013-06-15 17:00:00,
2013-06-15 13:05:00,84.4,60.8,30.09,East,89,0.0,5.0,45,0.00,,-RA,0.00,VWS V14.01,2013-06-15 17:05:00,
2013-06-15 13:10:00,83.9,61.5,30.09,SSW,211,3.0,5.0,47,0.00,,-RA,0.00,VWS V14.01,2013-06-15 17:10:00,
2013-06-15 13:15:00,84.4,61.4,30.09,ESE,107,2.0,5.0,46,0.00,,-RA,0.00,VWS V14.01,2013-06-15 17:15:00,
2013-06-15 13:20:00,85.2,60.2,30.09,SW,221,1.0,6.0,43,0.00,,-RA,0.00,VWS V14.01,2013-06-15 17:20:00,
2013-06-15 13:25:00,85.3,59.6,30.08,ENE,69,0.0,7.0,42,0.00,,-RA,0.00,VWS V14.01,2013-06-15 17:25:00,
2013-06-15 13:30:00,85.5,60.5,30.08,NE,49,0.0,7.0,43,0.00,,-RA,0.00,VWS V14.01,2013-06-15 17:30:00,
2013-06-15 13:35:00,86.1,61.7,30.08,NE,35,1.0,7.0,44,0.00,,-RA,0.00,VWS V14.01,2013-06-15 17:35:00,
2013-06-15 13:40:00,85.7,61.3,30.08,ENE,58,0.0,7.0,44,0.00,,-RA,0.00,VWS V14.01,2013-06-15 17:40:00,
2013-06-15 13:45:00,84.5,60.2,30.08,NNE,14,1.0,7.0,44,0.00,,-RA,0.00,VWS V14.01,2013-06-15 17:45:00,
2013-06-15 13:50:00,83.7,60.1,30.07,North,5,0.0,7.0,45,0.00,,-RA,0.00,VWS V14.01,2013-06-15 17:50:00,
2013-06-15 13:55:00,83.6,60.0,30.07,North,349,0.0,7.0,45,0.00,,-RA,0.00,VWS V14.01,2013-06-15 17:55:00,
2013-06-15 14:00:00,83.6,60.7,30.07,ENE,71,1.0,7.0,46,0.00,,-RA,0.00,VWS V14.01,2013-06-15 18:00:00,
2013-06-15 14:05:00,83.6,61.3,30.07,ENE,63,3.0,4.0,47,0.00,,-RA,0.00,VWS V14.01,2013-06-15 18:05:00,
2013-06-15 14:10:00,83.1,60.2,30.07,ENE,63,3.0,6.0,46,0.00,,-RA,0.00,VWS V14.01,2013-06-15 18:10:00,
2013-06-15 14:15:00,82.9,61.2,30.07,NE,35,2.0,6.0,48,0.00,,-RA,0.00,VWS V14.01,2013-06-15 18:15:00,
2013-06-15 14:20:00,83.5,61.2,30.07,ENE,62,0.0,6.0,47,0.00,,-RA,0.00,VWS V14.01,2013-06-15 18:20:00,
2013-06-15 14:25:00,83.3,61.6,30.07,ENE,67,2.0,7.0,48,0.00,,-RA,0.00,VWS V14.01,2013-06-15 18:25:00,
2013-06-15 14:30:00,83.4,61.1,30.07,ENE,66,0.0,7.0,47,0.00,,-RA,0.00,VWS V14.01,2013-06-15 18:30:00,
2013-06-15 14:35:00,83.9,61.5,30.07,ENE,66,0.0,7.0,47,0.00,,-RA,0.00,VWS V14.01,2013-06-15 18:35:00,
2013-06-15 14:40:00,84.6,62.2,30.07,ENE,66,0.0,7.0,47,0.00,,-RA,0.00,VWS V14.01,2013-06-15 18:40:00,
2013-06-15 14:45:00,84.9,62.4,30.07,South,182,0.0,7.0,47,0.00,,-RA,0.00,VWS V14.01,2013-06-15 18:45:00,
2013-06-15 14:50:00,85.0,61.9,30.07,ENE,74,0.0,7.0,46,0.00,,-RA,0.00,VWS V14.01,2013-06-15 18:50:00,
2013-06-15 14:55:00,84.6,60.9,30.07,ENE,61,0.0,7.0,45,0.00,,-RA,0.00,VWS V14.01,2013-06-15 18:55:00,
2013-06-15 15:00:00,84.1,61.7,30.07,ENE,61,0.0,7.0,47,0.00,,-RA,0.00,VWS V14.01,2013-06-15 19:00:00,
2013-06-15 15:05:00,84.0,63.4,30.07,ENE,61,1.0,1.0,50,0.00,,-RA,0.00,VWS V14.01,2013-06-15 19:05:00,
2013-06-15 15:10:00,83.9,60.9,30.07,ENE,61,0.0,1.0,46,0.00,,-RA,0.00,VWS V14.01,2013-06-15 19:10:00,
2013-06-15 15:15:00,84.1,61.7,30.07,ENE,61,0.0,1.0,47,0.00,,-RA,0.00,VWS V14.01,2013-06-15 19:15:00,
2013-06-15 15:20:00,84.4,62.0,30.07,ENE,61,0.0,1.0,47,0.00,,-RA,0.00,VWS V14.01,2013-06-15 19:20:00,
2013-06-15 15:25:00,85.2,62.7,30.07,East,93,0.0,1.0,47,0.00,,-RA,0.00,VWS V14.01,2013-06-15 19:25:00,
2013-06-15 15:30:00,86.1,62.3,30.07,East,101,0.0,1.0,45,0.00,,-RA,0.00,VWS V14.01,2013-06-15 19:30:00,
2013-06-15 15:35:00,85.4,61.7,30.07,South,180,1.0,2.0,45,0.00,,-RA,0.00,VWS V14.01,2013-06-15 19:35:00,
2013-06-15 15:40:00,84.5,60.8,30.07,SSW,199,0.0,3.0,45,0.00,,-RA,0.00,VWS V14.01,2013-06-15 19:40:00,
2013-06-15 15:45:00,84.2,61.8,30.07,SSW,199,0.0,3.0,47,0.00,,-RA,0.00,VWS V14.01,2013-06-15 19:45:00,
2013-06-15 15:50:00,84.1,62.9,30.07,East,94,0.0,3.0,49,0.00,,-RA,0.00,VWS V14.01,2013-06-15 19:50:00,
2013-06-15 15:55:00,84.1,63.5,30.06,East,94,0.0,3.0,50,0.00,,-RA,0.00,VWS V14.01,2013-06-15 19:55:00,
2013-06-15 16:00:00,84.3,63.7,30.06,East,94,0.0,3.0,50,0.00,,-RA,0.00,VWS V14.01,2013-06-15 20:00:00,
2013-06-15 16:05:00,85.0,61.9,30.06,East,94,0.0,1.0,46,0.00,,-RA,0.00,VWS V14.01,2013-06-15 20:05:00,
2013-06-15 16:10:00,85.8,62.0,30.06,SW,225,0.0,2.0,45,0.00,,-RA,0.00,VWS V14.01,2013-06-15 20:10:00,
2013-06-15 16:15:00,86.4,62.6,30.06,SW,225,0.0,2.0,45,0.00,,-RA,0.00,VWS V14.01,2013-06-15 20:15:00,
2013-06-15 16:20:00,86.9,63.0,30.06,East,90,0.0,2.0,45,0.00,,-RA,0.00,VWS V14.01,2013-06-15 20:20:00,
2013-06-15 16:25:00,87.6,63.7,30.06,West,267,2.0,2.0,45,0.00,,-RA,0.00,VWS V14.01,2013-06-15 20:25:00,
2013-06-15 16:30:00,88.2,62.9,30.06,SW,225,0.0,3.0,43,0.00,,-RA,0.00,VWS V14.01,2013-06-15 20:30:00,
2013-06-15 16:35:00,88.6,63.3,30.06,SW,228,0.0,3.0,43,0.00,,-RA,0.00,VWS V14.01,2013-06-15 20:35:00,
2013-06-15 16:40:00,88.5,63.2,30.05,West,280,0.0,5.0,43,0.00,,-RA,0.00,VWS V14.01,2013-06-15 20:40:00,
2013-06-15 16:45:00,87.4,62.2,30.06,West,266,0.0,5.0,43,0.00,,-RA,0.00,VWS V14.01,2013-06-15 20:45:00,
2013-06-15 16:50:00,86.1,62.3,30.05,East,98,3.0,6.0,45,0.00,,-RA,0.00,VWS V14.01,2013-06-15 20:50:00,
2013-06-15 16:55:00,84.8,63.0,30.05,East,82,0.0,6.0,48,0.00,,-RA,0.00,VWS V14.01,2013-06-15 20:55:00,
2013-06-15 17:00:00,84.1,62.9,30.06,East,81,1.0,6.0,49,0.00,,-RA,0.00,VWS V14.01,2013-06-15 21:00:00,
2013-06-15 17:05:00,83.4,62.8,30.05,East,80,2.0,3.0,50,0.00,,-RA,0.00,VWS V14.01,2013-06-15 21:05:00,
2013-06-15 17:10:00,82.9,64.0,30.05,East,80,0.0,3.0,53,0.00,,-RA,0.00,VWS V14.01,2013-06-15 21:10:00,
2013-06-15 17:15:00,82.9,64.6,30.05,East,80,0.0,3.0,54,0.00,,-RA,0.00,VWS V14.01,2013-06-15 21:15:00,
2013-06-15 17:20:00,83.0,64.7,30.05,East,80,0.0,3.0,54,0.00,,-RA,0.00,VWS V14.01,2013-06-15 21:20:00,
2013-06-15 17:25:00,83.3,64.9,30.05,East,80,0.0,3.0,54,0.00,,-RA,0.00,VWS V14.01,2013-06-15 21:25:00,
2013-06-15 17:30:00,83.6,64.7,30.05,East,80,0.0,3.0,53,0.00,,-RA,0.00,VWS V14.01,2013-06-15 21:30:00,
2013-06-15 17:35:00,83.9,63.8,30.05,East,80,0.0,3.0,51,0.00,,-RA,0.00,VWS V14.01,2013-06-15 21:35:00,
2013-06-15 17:40:00,84.0,63.9,30.05,East,80,0.0,3.0,51,0.00,,-RA,0.00,VWS V14.01,2013-06-15 21:40:00,
2013-06-15 17:45:00,84.3,62.5,30.05,East,80,0.0,3.0,48,0.00,,-RA,0.00,VWS V14.01,2013-06-15 21:45:00,
2013-06-15 17:50:00,85.0,62.5,30.05,East,80,0.0,3.0,47,0.00,,-RA,0.00,VWS V14.01,2013-06-15 21:50:00,
2013-06-15 17:55:00,85.8,63.3,30.05,East,80,1.0,3.0,47,0.00,,-RA,0.00,VWS V14.01,2013-06-15 21:55:00,
2013-06-15 18:00:00,86.1,62.3,30.05,NW,323,0.0,3.0,45,0.00,,-RA,0.00,VWS V14.01,2013-06-15 22:00:00,
2013-06-15 18:05:00,85.8,62.7,30.05,NW,323,1.0,1.0,46,0.00,,-RA,0.00,VWS V14.01,2013-06-15 22:05:00,
2013-06-15 18:10:00,85.4,62.9,30.05,NW,323,0.0,2.0,47,0.00,,-RA,0.00,VWS V14.01,2013-06-15 22:10:00,
2013-06-15 18:15:00,85.4,64.1,30.05,NW,323,0.0,2.0,49,0.00,,-RA,0.00,VWS V14.01,2013-06-15 22:15:00,
2013-06-15 18:20:00,85.6,64.3,30.05,NW,323,0.0,2.0,49,0.00,,-RA,0.00,VWS V14.01,2013-06-15 22:20:00,
2013-06-15 18:25:00,85.5,63.0,30.05,NNW,341,0.0,2.0,47,0.00,,-RA,0.00,VWS V14.01,2013-06-15 22:25:00,
2013-06-15 18:30:00,85.2,62.7,30.05,NW,315,0.0,2.0,47,0.00,,-RA,0.00,VWS V14.01,2013-06-15 22:30:00,
2013-06-15 18:35:00,85.0,63.7,30.05,WNW,289,0.0,2.0,49,0.00,,-RA,0.00,VWS V14.01,2013-06-15 22:35:00,
2013-06-15 18:40:00,84.7,62.9,30.05,West,276,1.0,2.0,48,0.00,,-RA,0.00,VWS V14.01,2013-06-15 22:40:00,
2013-06-15 18:45:00,84.4,62.6,30.05,West,276,0.0,2.0,48,0.00,,-RA,0.00,VWS V14.01,2013-06-15 22:45:00,
2013-06-15 18:50:00,84.5,62.1,30.05,West,276,0.0,2.0,47,0.00,,-RA,0.00,VWS V14.01,2013-06-15 22:50:00,
2013-06-15 18:55:00,84.8,63.0,30.05,West,276,0.0,2.0,48,0.00,,-RA,0.00,VWS V14.01,2013-06-15 22:55:00,
2013-06-15 19:00:00,85.0,62.5,30.04,West,276,0.0,2.0,47,0.00,,-RA,0.00,VWS V14.01,2013-06-15 23:00:00,
2013-06-15 19:05:00,85.3,63.4,30.05,West,276,0.0,0.0,48,0.00,,-RA,0.00,VWS V14.01,2013-06-15 23:05:00,
2013-06-15 19:10:00,85.7,63.2,30.05,West,276,0.0,1.0,47,0.00,,-RA,0.00,VWS V14.01,2013-06-15 23:10:00,
2013-06-15 19:15:00,85.9,64.5,30.05,West,276,0.0,1.0,49,0.00,,-RA,0.00,VWS V14.01,2013-06-15 23:15:00,
2013-06-15 19:20:00,86.0,65.2,30.05,West,276,0.0,1.0,50,0.00,,-RA,0.00,VWS V14.01,2013-06-15 23:20:00,
2013-06-15 19:25:00,86.0,64.6,30.04,West,276,0.0,1.0,49,0.00,,-RA,0.00,VWS V14.01,2013-06-15 23:25:00,
2013-06-15 19:30:00,86.1,64.7,30.04,West,276,0.0,1.0,49,0.00,,-RA,0.00,VWS V14.01,2013-06-15 23:30:00,
2013-06-15 19:35:00,86.0,66.9,30.04,West,276,0.0,1.0,53,0.00,,-RA,0.00,VWS V14.01,2013-06-15 23:35:00,
2013-06-15 19:40:00,86.0,67.4,30.04,West,276,0.0,1.0,54,0.00,,-RA,0.00,VWS V14.01,2013-06-15 23:40:00,
2013-06-15 19:45:00,85.7,67.2,30.04,West,276,0.0,1.0,54,0.00,,-RA,0.00,VWS V14.01,2013-06-15 23:45:00,
2013-06-15 19:50:00,85.4,66.9,30.04,West,276,0.0,1.0,54,0.00,,-RA,0.00,VWS V14.01,2013-06-15 23:50:00,
2013-06-15 19:55:00,85.0,67.0,30.04,West,276,0.0,1.0,55,0.00,,-RA,0.00,VWS V14.01,2013-06-15 23:55:00,
2013-06-15 20:00:00,84.9,67.5,30.05,West,276,0.0,1.0,56,0.00,,-RA,0.00,VWS V14.01,2013-06-16 00:00:00,
2013-06-15 20:05:00,84.4,67.5,30.04,West,276,0.0,0.0,57,0.00,,-RA,0.00,VWS V14.01,2013-06-16 00:05:00,
2013-06-15 20:10:00,84.0,68.1,30.04,West,276,0.0,0.0,59,0.00,,-RA,0.00,VWS V14.01,2013-06-16 00:10:00,
2013-06-15 20:15:00,83.6,67.8,30.04,West,276,0.0,0.0,59,0.00,,-RA,0.00,VWS V14.01,2013-06-16 00:15:00,
2013-06-15 20:20:00,82.7,67.9,30.04,West,277,0.0,0.0,61,0.00,,-RA,0.00,VWS V14.01,2013-06-16 00:20:00,
2013-06-15 20:25:00,82.0,69.1,30.04,West,277,0.0,0.0,65,0.00,,-RA,0.00,VWS V14.01,2013-06-16 00:25:00,
2013-06-15 20:30:00,81.4,68.5,30.04,West,277,0.0,0.0,65,0.00,,-RA,0.00,VWS V14.01,2013-06-16 00:30:00,
2013-06-15 20:35:00,80.6,68.2,30.04,West,277,0.0,0.0,66,0.00,,-RA,0.00,VWS V14.01,2013-06-16 00:35:00,
2013-06-15 20:40:00,79.9,69.2,30.04,West,277,0.0,0.0,70,0.00,,-RA,0.00,VWS V14.01,2013-06-16 00:40:00,
2013-06-15 20:44:00,79.2,69.8,30.04,West,277,0.0,0.0,73,0.00,,-RA,0.00,VWS V14.01,2013-06-16 00:44:00,
2013-06-15 20:49:00,78.6,69.6,30.04,West,277,0.0,0.0,74,0.00,,-RA,0.00,VWS V14.01,2013-06-16 00:49:00,
2013-06-15 20:54:00,77.8,69.6,30.04,West,277,0.0,0.0,76,0.00,,-RA,0.00,VWS V14.01,2013-06-16 00:54:00,
2013-06-15 20:59:00,77.3,69.2,30.03,West,277,0.0,0.0,76,0.00,,-RA,0.00,VWS V14.01,2013-06-16 00:59:00,
2013-06-15 21:04:00,76.7,68.6,30.03,West,277,0.0,0.0,76,0.00,,-RA,0.00,VWS V14.01,2013-06-16 01:04:00,
2013-06-15 21:09:00,76.1,68.4,30.03,West,277,0.0,0.0,77,0.00,,-RA,0.00,VWS V14.01,2013-06-16 01:09:00,
2013-06-15 21:14:00,75.7,68.0,30.03,West,277,0.0,0.0,77,0.00,,-RA,0.00,VWS V14.01,2013-06-16 01:14:00,
2013-06-15 21:19:00,75.2,67.5,30.04,West,277,0.0,0.0,77,0.00,,-RA,0.00,VWS V14.01,2013-06-16 01:19:00,
2013-06-15 21:24:00,74.8,67.1,30.04,West,277,0.0,0.0,77,0.00,,-RA,0.00,VWS V14.01,2013-06-16 01:24:00,
2013-06-15 21:29:00,74.3,66.2,30.04,West,277,0.0,0.0,76,0.00,,-RA,0.00,VWS V14.01,2013-06-16 01:29:00,
2013-06-15 21:34:00,74.0,66.3,30.04,West,277,0.0,0.0,77,0.00,,-RA,0.00,VWS V14.01,2013-06-16 01:34:00,
2013-06-15 21:39:00,73.9,66.2,30.04,West,277,0.0,0.0,77,0.00,,-RA,0.00,VWS V14.01,2013-06-16 01:39:00,
2013-06-15 21:44:00,73.7,66.1,30.04,West,277,0.0,0.0,77,0.00,,-RA,0.00,VWS V14.01,2013-06-16 01:44:00,
2013-06-15 21:49:00,73.4,66.1,30.05,West,277,0.0,0.0,78,0.00,,-RA,0.00,VWS V14.01,2013-06-16 01:49:00,
2013-06-15 21:54:00,73.0,65.4,30.04,West,277,0.0,0.0,77,0.00,,-RA,0.00,VWS V14.01,2013-06-16 01:54:00,
2013-06-15 21:59:00,72.5,64.5,30.05,West,277,0.0,0.0,76,0.00,,-RA,0.00,VWS V14.01,2013-06-16 01:59:00,
2013-06-15 22:04:00,72.2,64.2,30.05,West,277,0.0,0.0,76,0.00,,-RA,0.00,VWS V14.01,2013-06-16 02:04:00,
2013-06-15 22:09:00,71.9,63.9,30.05,West,277,0.0,0.0,76,0.00,,-RA,0.00,VWS V14.01,2013-06-16 02:09:00,
2013-06-15 22:14:00,71.7,64.1,30.06,South,171,1.0,4.0,77,0.00,,-RA,0.00,VWS V14.01,2013-06-16 02:14:00,
2013-06-15 22:19:00,72.1,64.9,30.06,South,184,0.0,4.0,78,0.00,,-RA,0.00,VWS V14.01,2013-06-16 02:19:00,
2013-06-15 22:24:00,72.4,65.5,30.06,SSW,200,0.0,5.0,79,0.00,,-RA,0.00,VWS V14.01,2013-06-16 02:24:00,
2013-06-15 22:29:00,72.5,66.0,30.07,South,189,0.0,5.0,80,0.00,,-RA,0.00,VWS V14.01,2013-06-16 02:29:00,
2013-06-15 22:34:00,72.6,66.1,30.07,South,189,0.0,5.0,80,0.00,,-RA,0.00,VWS V14.01,2013-06-16 02:34:00,
2013-06-15 22:39:00,72.4,65.9,30.07,South,189,0.0,5.0,80,0.00,,-RA,0.00,VWS V14.01,2013-06-16 02:39:00,
2013-06-15 22:44:00,72.3,66.2,30.07,South,189,0.0,5.0,81,0.00,,-RA,0.00,VWS V14.01,2013-06-16 02:44:00,
2013-06-15 22:49:00,72.2,66.1,30.07,South,184,2.0,5.0,81,0.00,,-RA,0.00,VWS V14.01,2013-06-16 02:49:00,
2013-06-15 22:54:00,72.1,65.9,30.07,South,184,0.0,5.0,81,0.00,,-RA,0.00,VWS V14.01,2013-06-16 02:54:00,
2013-06-15 22:59:00,71.9,65.8,30.08,South,184,0.0,5.0,81,0.00,,-RA,0.00,VWS V14.01,2013-06-16 02:59:00,
2013-06-15 23:04:00,71.8,66.0,30.08,South,184,0.0,2.0,82,0.00,,-RA,0.00,VWS V14.01,2013-06-16 03:04:00,
2013-06-15 23:09:00,71.8,66.0,30.08,South,184,0.0,4.0,82,0.00,,-RA,0.00,VWS V14.01,2013-06-16 03:09:00,
2013-06-15 23:14:00,71.8,66.0,30.08,South,184,0.0,4.0,82,0.00,,-RA,0.00,VWS V14.01,2013-06-16 03:14:00,
2013-06-15 23:19:00,71.7,65.9,30.08,South,184,0.0,4.0,82,0.00,,-RA,0.00,VWS V14.01,2013-06-16 03:19:00,
2013-06-15 23:24:00,71.6,65.8,30.08,SSE,166,0.0,4.0,82,0.00,,-RA,0.00,VWS V14.01,2013-06-16 03:24:00,
2013-06-15 23:29:00,71.4,65.6,30.08,SSE,167,0.0,4.0,82,0.00,,-RA,0.00,VWS V14.01,2013-06-16 03:29:00,
2013-06-15 23:34:00,71.3,65.5,30.08,SSE,167,0.0,4.0,82,0.00,,-RA,0.00,VWS V14.01,2013-06-16 03:34:00,
2013-06-15 23:39:00,71.3,65.5,30.08,SSE,167,0.0,4.0,82,0.00,,-RA,0.00,VWS V14.01,2013-06-16 03:39:00,
2013-06-15 23:44:00,71.2,65.4,30.08,SSE,167,3.0,4.0,82,0.00,,-RA,0.00,VWS V14.01,2013-06-16 03:44:00,
2013-06-15 23:49:00,71.1,65.3,30.08,SSE,167,1.0,4.0,82,0.00,,-RA,0.00,VWS V14.01,2013-06-16 03:49:00,
2013-06-15 23:54:00,71.0,65.2,30.09,South,170,1.0,4.0,82,0.00,,-RA,0.00,VWS V14.01,2013-06-16 03:54:00,
2013-06-15 23:59:00,70.9,65.5,30.09,South,170,0.0,4.0,83,0.00,,-RA,0.00,VWS V14.01,2013-06-16 03:59:00,